Location: Newark
(15.4608°S, 41.1635°W)
Time: 17:55:28
(UTC+00:00)

Vanguard 1 Rocket - All Passes

Search period start: 29 July 2021 00:00
Search period end: 08 August 2021 00:00
Orbit: 650 x 4226 km, 34.3° (Epoch: 28 July)

Date Brightness Start Highest point End Pass type
(mag) Time Alt. Az. Time Alt. Az. Time Alt. Az.
29 Jul - 02:18:27 10° WSW 02:27:15 39° S 02:43:31 10° SE visible
29 Jul - 04:46:10 10° SW 05:00:46 43° SSE 05:24:06 10° E visible
29 Jul - 07:14:22 10° SW 07:36:18 72° SSE 08:02:09 10° ENE visible
29 Jul - 09:45:13 10° WSW 10:10:17 60° NW 10:31:27 10° NE daylight
29 Jul - 12:26:56 10° W 12:41:16 19° NW 12:52:40 10° N daylight
29 Jul - 22:42:45 10° NNW 22:47:36 46° NE 22:55:32 10° ESE visible
30 Jul - 01:06:58 10° W 01:13:58 46° SSW 01:27:15 10° SE night (unlit)
30 Jul - 03:34:05 10° WSW 03:45:23 37° S 04:04:59 10° ESE visible
30 Jul - 06:01:41 10° SW 06:20:06 57° SSE 06:46:00 10° E visible
30 Jul - 08:30:35 10° WSW 08:54:50 80° NW 09:19:01 10° NE visible
30 Jul - 11:05:39 10° W 11:27:07 33° NW 11:44:09 10° NNE daylight
30 Jul - 21:34:01 10° N 21:37:07 17° NE 21:40:56 10° E visible
30 Jul - 23:55:58 10° WNW 00:01:42 64° SSW 00:12:27 10° SE visible
31 Jul - 02:22:15 10° WSW 02:30:58 35° S 02:46:35 10° ESE visible
31 Jul - 04:49:31 10° SW 05:04:16 46° SSE 05:27:58 10° E visible
31 Jul - 07:17:11 10° SW 07:38:56 81° SSE 08:05:04 10° ENE visible
31 Jul - 09:48:26 10° WSW 10:12:25 50° NW 10:33:27 10° NNE daylight
31 Jul - 12:34:56 10° WNW 12:44:06 13° NW 12:52:03 10° NNW daylight
31 Jul - 22:45:32 10° NW 22:50:25 71° NE 22:58:37 10° ESE visible
01 Aug - 01:10:41 10° WSW 01:17:32 37° S 01:29:56 10° SE night (unlit)
01 Aug - 03:37:41 10° SW 03:49:05 37° SSE 04:08:47 10° ESE visible
01 Aug - 06:04:39 10° SW 06:23:02 64° SSE 06:49:21 10° ENE visible
01 Aug - 08:33:30 10° WSW 08:57:06 69° NW 09:21:19 10° NE visible
01 Aug - 11:10:22 10° W 11:29:31 26° NW 11:45:25 10° N daylight
01 Aug - 21:35:53 10° NNW 21:39:48 28° NE 21:45:00 10° E visible
01 Aug - 23:59:25 10° W 00:05:02 46° SSW 00:15:03 10° SE visible
02 Aug - 02:26:02 10° WSW 02:34:42 32° S 02:49:55 10° ESE visible
02 Aug - 04:52:42 10° SW 05:07:32 50° SSE 05:31:44 10° E visible
02 Aug - 07:20:02 10° WSW 07:41:24 89° NW 08:07:42 10° NE visible
02 Aug - 09:52:01 10° WSW 10:14:39 41° NW 10:35:12 10° NNE daylight
02 Aug - 22:48:35 10° WNW 22:53:25 76° SSW 23:01:27 10° SE visible
03 Aug - 01:14:30 10° WSW 01:21:11 31° S 01:32:45 10° SE night (unlit)
03 Aug - 03:41:06 10° SW 03:52:38 39° SSE 04:12:41 10° E visible
03 Aug - 06:07:34 10° SW 06:25:47 72° SSE 06:52:24 10° ENE visible
03 Aug - 08:36:36 10° WSW 08:59:22 59° NW 09:23:22 10° NE visible
03 Aug - 11:16:09 10° W 11:32:13 20° NW 11:46:09 10° N daylight
03 Aug - 21:38:20 10° NW 21:42:35 47° NE 21:48:27 10° ESE visible
04 Aug - 00:03:06 10° W 00:08:30 35° SSW 00:17:39 10° SE visible
04 Aug - 02:29:43 10° SW 02:38:25 32° S 02:53:31 10° ESE visible
04 Aug - 04:55:45 10° SW 05:10:36 56° SSE 05:35:16 10° ENE visible
04 Aug - 07:22:57 10° WSW 07:43:47 78° NW 08:10:04 10° NE visible
04 Aug - 09:56:06 10° W 10:17:03 33° NW 10:36:40 10° NNE daylight
04 Aug - 20:29:06 10° N 20:32:00 17° NE 20:35:06 10° E daylight
04 Aug - 22:51:55 10° W 22:56:37 50° SSW 23:04:09 10° SE visible
05 Aug - 01:18:21 10° SW 01:24:54 27° S 01:35:48 10° SE night (unlit)
05 Aug - 03:44:22 10° SW 03:56:02 42° SSE 04:16:34 10° E visible
05 Aug - 06:10:27 10° SW 06:28:23 82° SE 06:55:11 10° ENE visible
05 Aug - 08:39:57 10° WSW 09:01:41 49° NW 09:25:10 10° NNE visible
05 Aug - 11:23:47 10° WNW 11:35:21 15° NW 11:45:50 10° NNW daylight
05 Aug - 21:41:09 10° NW 21:45:32 81° NE 21:51:33 10° ESE visible
06 Aug - 00:06:56 10° WSW 00:12:05 27° S 00:20:19 10° SE visible
06 Aug - 02:33:14 10° SW 02:42:02 32° SSE 02:57:20 10° ESE visible
06 Aug - 04:58:43 10° SW 05:13:29 63° SSE 05:38:33 10° ENE visible
06 Aug - 07:25:59 10° WSW 07:46:11 67° NW 08:12:10 10° NE visible
06 Aug - 10:00:54 10° W 10:19:43 26° NW 10:37:46 10° N daylight
06 Aug - 20:31:00 10° NNW 20:34:53 30° NE 20:39:07 10° E daylight
06 Aug - 22:55:30 10° W 22:59:59 34° SSW 23:06:46 10° SE visible
07 Aug - 01:22:08 10° SW 01:28:36 25° S 01:39:08 10° ESE night (unlit)
07 Aug - 03:47:30 10° SW 03:59:12 47° SSE 04:20:19 10° E visible
07 Aug - 06:13:22 10° WSW 06:30:54 87° NW 06:57:39 10° NE visible
07 Aug - 08:43:40 10° W 09:04:11 40° NW 09:26:42 10° NNE visible
07 Aug - 19:22:29 10° NNE 19:23:56 11° NE 19:25:20 10° NE daylight
07 Aug - 21:44:17 10° WNW 21:48:38 61° SSW 21:54:25 10° SE visible
